TimeEDT,TemperatureF,Dew PointF,Humidity,Sea Level PressureIn,VisibilityMPH,Wind Direction,Wind SpeedMPH,Gust SpeedMPH,PrecipitationIn,Events,Conditions,WindDirDegrees,DateUTC
12:53 AM,68.0,64.9,90,30.00,8.0,SSE,4.6,-,N/A,,Overcast,160,2013-08-01 04:53:00
1:53 AM,68.0,64.9,90,29.98,10.0,South,5.8,-,N/A,,Overcast,170,2013-08-01 05:53:00
2:12 AM,68.0,64.4,88,29.98,4.0,South,4.6,-,0.01,Rain,Light Rain,190,2013-08-01 06:12:00
2:23 AM,66.2,64.4,94,29.98,2.0,South,3.5,-,0.04,Rain,Rain,180,2013-08-01 06:23:00
2:34 AM,66.2,64.4,94,29.97,4.0,Calm,Calm,-,0.04,Rain,Light Rain,0,2013-08-01 06:34:00
2:50 AM,66.2,64.4,94,29.97,7.0,Calm,Calm,-,0.04,,Overcast,0,2013-08-01 06:50:00
2:53 AM,66.9,64.9,93,29.96,6.0,Calm,Calm,-,0.04,Rain,Light Rain,0,2013-08-01 06:53:00
3:24 AM,66.2,64.4,94,29.95,3.0,Calm,Calm,-,0.01,Rain,Light Rain,0,2013-08-01 07:24:00
3:53 AM,66.9,64.9,93,29.93,7.0,Calm,Calm,-,0.02,Rain,Light Rain,0,2013-08-01 07:53:00
4:02 AM,66.2,64.4,94,29.94,7.0,Calm,Calm,-,0.00,,Overcast,0,2013-08-01 08:02:00
4:53 AM,66.9,64.9,93,29.92,3.0,Calm,Calm,-,0.00,Rain,Light Rain,0,2013-08-01 08:53:00
5:53 AM,66.9,64.9,93,29.91,7.0,SSE,3.5,-,0.01,,Overcast,160,2013-08-01 09:53:00
6:53 AM,66.9,64.9,93,29.92,5.0,Calm,Calm,-,N/A,,Overcast,0,2013-08-01 10:53:00
7:12 AM,66.2,64.4,94,29.93,4.0,Calm,Calm,-,N/A,,Mostly Cloudy,0,2013-08-01 11:12:00
7:53 AM,66.9,64.9,93,29.92,8.0,South,4.6,-,N/A,,Scattered Clouds,190,2013-08-01 11:53:00
8:02 AM,66.2,64.4,94,29.93,8.0,South,4.6,-,N/A,,Mostly Cloudy,180,2013-08-01 12:02:00
8:53 AM,69.1,66.0,90,29.92,10.0,South,4.6,-,N/A,,Overcast,190,2013-08-01 12:53:00
9:37 AM,71.6,66.2,83,29.93,10.0,SW,4.6,-,N/A,,Mostly Cloudy,230,2013-08-01 13:37:00
9:53 AM,73.0,66.9,81,29.91,10.0,SW,6.9,-,N/A,,Mostly Cloudy,230,2013-08-01 13:53:00
10:53 AM,73.9,66.0,76,29.90,10.0,Calm,Calm,-,N/A,,Overcast,0,2013-08-01 14:53:00
11:53 AM,75.9,66.9,74,29.89,10.0,Calm,Calm,-,N/A,,Mostly Cloudy,0,2013-08-01 15:53:00
12:15 PM,78.8,66.2,65,29.89,10.0,WSW,6.9,-,N/A,,Mostly Cloudy,240,2013-08-01 16:15:00
12:23 PM,78.8,66.2,65,29.89,10.0,WSW,5.8,-,N/A,,Overcast,250,2013-08-01 16:23:00
12:53 PM,79.0,66.0,64,29.87,10.0,Variable,4.6,-,N/A,,Overcast,0,2013-08-01 16:53:00
1:53 PM,81.0,64.9,58,29.85,10.0,NW,6.9,17.3,N/A,,Mostly Cloudy,320,2013-08-01 17:53:00
2:53 PM,84.9,64.9,51,29.84,10.0,NW,8.1,-,N/A,,Partly Cloudy,320,2013-08-01 18:53:00
3:53 PM,80.1,63.0,56,29.84,10.0,WNW,8.1,-,N/A,,Overcast,290,2013-08-01 19:53:00
4:53 PM,82.0,63.0,52,29.83,10.0,Calm,Calm,-,N/A,,Clear,0,2013-08-01 20:53:00
5:53 PM,82.0,64.0,54,29.83,10.0,SSE,4.6,-,N/A,,Scattered Clouds,150,2013-08-01 21:53:00
6:53 PM,80.1,62.1,54,29.84,10.0,West,6.9,-,N/A,,Scattered Clouds,270,2013-08-01 22:53:00
7:46 PM,73.4,66.2,78,29.89,1.8,WNW,10.4,24.2,0.09,Rain,Heavy Rain,290,2013-08-01 23:46:00
7:53 PM,73.0,66.0,79,29.88,2.5,West,4.6,-,0.10,Rain,Light Rain,270,2013-08-01 23:53:00
8:00 PM,71.6,66.2,83,29.88,10.0,Calm,Calm,-,0.00,,Overcast,0,2013-08-02 00:00:00
8:53 PM,70.0,66.9,90,29.88,9.0,SSE,3.5,-,0.00,,Overcast,150,2013-08-02 00:53:00
9:53 PM,71.1,66.9,87,29.88,10.0,SW,3.5,-,N/A,,Mostly Cloudy,230,2013-08-02 01:53:00
10:53 PM,68.0,64.9,90,29.88,10.0,Calm,Calm,-,N/A,,Clear,0,2013-08-02 02:53:00
11:53 PM,66.9,64.0,90,29.89,10.0,SSW,3.5,-,N/A,,Clear,210,2013-08-02 03:53:00